Fairbanks Ft. Wainwright, AK

2:56 AM AKDT on September 21, 2017 (GMT -0800)
Ladd Army Air Field

Weather History for PAFB - February, 2014

Change the Weather History Date:

Friday, February 7, 2014

  Actual Average Record
Temperature  
Mean Temperature 6 °F -  
Max Temperature 14 °F 6 °F 33 °F (2003)
Min Temperature -11 °F -4 °F -54 °F (2008)
Degree Days  
Heating Degree Days 59    
Moisture  
Dew Point -1 °F    
Average Humidity 67    
Maximum Humidity 85    
Minimum Humidity 57    
Precipitation  
Precipitation 0.00 in - - ()
Snow  
Snow 0.00 in - - ()
Snow Depth 19.00 in    
Sea Level Pressure  
Sea Level Pressure 30.42 in    
Wind  
Wind Speed 9 mph (ENE)    
Max Wind Speed 17 mph    
Max Gust Speed 25 mph    
Visibility 10 miles    
Events      
Averages and records for this station are not official NWS values.
T = Trace of Precipitation, MM = Missing Value Source: NWS Daily Summary

Daily Weather History Graph

Daily Weather History Graph

Search for Another Location

Airport or City:

Trip Planner

Search our weather history database for the weather conditions in past years. The results will help you decide how hot, cold, wet, or windy it might be!

Date:

Astronomy

Feb. 07, 2014 Rise Set
Actual Time 9:15 AM AKST 4:54 PM AKST
Civil Twilight 8:19 AM AKST 5:50 PM AKST
Nautical Twilight 7:20 AM AKST 6:49 PM AKST
Astronomical Twilight 6:24 AM AKST 7:46 PM AKST
Moon 10:41 AM AKST (2/7) 4:08 AM AKST (2/7)
Length of Visible Light 9h 30m
Length of Day
7h 38m
First Quarter, 60% of the Moon is Illuminated
Feb 7
First Quarter
Feb 14
Full
Feb 22
Last Quarter
Feb 28
New
Mar 8
First Quarter

Hourly Weather History & Observations

Time (AKST) Temp. Windchill Dew Point Humidity Pressure Visibility Wind Dir Wind Speed Gust Speed Precip Events Conditions
12:56 AM 12.9 °F -0.2 °F 3.0 °F 65% 30.28 in 10.0 mi NE 10.4 mph - N/A   Mostly Cloudy
1:56 AM 14.0 °F -2.5 °F 3.9 °F 64% 30.30 in 10.0 mi NE 17.3 mph 25.3 mph N/A   Overcast
2:56 AM 12.9 °F -1.6 °F 1.9 °F 62% 30.32 in 10.0 mi NE 12.7 mph 20.7 mph N/A   Scattered Clouds
3:56 AM 12.9 °F -2.2 °F 1.9 °F 62% 30.33 in 10.0 mi NE 13.8 mph - N/A   Overcast
4:56 AM 12.9 °F -0.9 °F 1.0 °F 59% 30.34 in 10.0 mi NE 11.5 mph - N/A   Mostly Cloudy
5:56 AM 12.9 °F 0.7 °F 1.0 °F 59% 30.35 in 10.0 mi ENE 9.2 mph - N/A   Overcast
6:25 AM 10.4 °F -2.4 °F -0.4 °F 62% 30.34 in 10.0 mi ENE 9.2 mph - N/A   Scattered Clouds
6:55 AM 6.8 °F -3.5 °F -2.2 °F 67% 30.39 in 10.0 mi ENE 5.8 mph - N/A   Scattered Clouds
7:55 AM 10.4 °F 4.0 °F -0.4 °F 62% 30.40 in 10.0 mi Variable 3.5 mph - N/A   Partly Cloudy
8:55 AM 8.6 °F -1.3 °F -0.4 °F 67% 30.40 in 85.0 mi ENE 5.8 mph - N/A   Partly Cloudy
9:55 AM -0.4 °F -13.4 °F -4.0 °F 85% 30.43 in 85.0 mi WSW 6.9 mph - N/A   Partly Cloudy
10:55 AM 1.4 °F -6.2 °F -4.0 °F 78% 30.44 in 85.0 mi ESE 3.5 mph - N/A   Partly Cloudy
11:55 AM 8.6 °F 2.0 °F -0.4 °F 67% 30.45 in 85.0 mi East 3.5 mph - N/A   Partly Cloudy
12:55 PM 8.6 °F 0.1 °F 1.4 °F 73% 30.45 in 25.0 mi East 4.6 mph - N/A   Partly Cloudy
1:55 PM 12.2 °F 4.3 °F 8.6 °F 85% 30.46 in 25.0 mi ENE 4.6 mph - N/A   Partly Cloudy
2:55 PM 14.0 °F 6.5 °F 1.4 °F 57% 30.47 in 25.0 mi ENE 4.6 mph - N/A   Clear
3:55 PM 12.2 °F -0.2 °F -0.4 °F 57% 30.47 in 25.0 mi NE 9.2 mph - N/A   Clear
4:55 PM 10.4 °F -1.5 °F -2.2 °F 57% 30.44 in 25.0 mi NE 8.1 mph - N/A   Partly Cloudy
5:55 PM 10.4 °F -3.3 °F -0.4 °F 62% 30.48 in 15.0 mi ENE 10.4 mph - N/A   Partly Cloudy
6:55 PM 8.6 °F -5.5 °F -2.2 °F 62% 30.49 in 10.0 mi East 10.4 mph - N/A   Partly Cloudy
7:55 PM 6.8 °F -4.8 °F -2.2 °F 67% 30.51 in 10.0 mi ENE 6.9 mph - N/A   Partly Cloudy
8:55 PM 1.4 °F -6.2 °F -5.8 °F 72% 30.52 in 10.0 mi East 3.5 mph - N/A   Partly Cloudy
10:56 PM -2.0 °F -13.9 °F -6.0 °F 83% 30.53 in 10.0 mi SE 5.8 mph - N/A   Clear
11:56 PM -11.0 °F -20.4 °F -15.0 °F 83% 30.54 in 10.0 mi Variable 3.5 mph - N/A   Clear